User: anonymous   Login
Location: Nachod
(50.4170°N, 16.1670°E)
Time: 08:22:06
(UTC+01:00)
Language:

PCSat - Orbit

View from above orbital plane
View from above orbital plane
View from above satellite
View from above satellite

Ground track
Ground track

The orbit data is extracted from the following two-line orbital elements,

1 26931U 01043C   21057.85847857 -.00000043  00000-0  15367-4 0  9990
2 26931  67.0504 205.8569 0007364 268.3502  91.6756 14.30607648 13429
Epoch (UTC): 26 February 2021 20:36:12
Eccentricity: 0.0007364
inclination: 67.0504°
perigee height: 784 km
apogee height: 795 km
right ascension of ascending node: 205.8569°
argument of perigee: 268.3502°
revolutions per day: 14.30607648
mean anomaly at epoch: 91.6756°
orbit number at epoch: 1342

The dashed part of the orbit path shows where the satellite is in the earth's shadow,  

DLR